When you browse on this site, cookies collect data to enhance your experience and personalize the content and advertising you see.
Visit our Privacy Policy to learn more. By continuing to use the site, you agree to this use of cookies and data.
  • En España
  • Lista de países
  • Para 7 días
  • Temperatura del agua
  • Mapa Satelital
  • El tiempo en el mapa
  • Informadores
  • user-avatar
    Iniciar sesión

    Tiempo cada hora Dubrovnic

    Hoy, 26 Junio, Miércoles

    Tiempo Temperatura Precipitaciones Viento Presión Humedad
    00:00 +25°C° 0 mm 4 mps 764 mmHg 76%
    01:00 +23°C° 0 mm 4 mps 764 mmHg 77%
    02:00 +23°C° 0 mm 4 mps 764 mmHg 77%
    03:00 +22°C° 0 mm 4 mps 764 mmHg 78%
    04:00 +22°C° 0 mm 4 mps 764 mmHg 78%
    05:00 +25°C° 0 mm 4 mps 764 mmHg 75%
    06:00 +26°C° 0 mm 3 mps 764 mmHg 73%
    07:00 +27°C° 0 mm 3 mps 764 mmHg 71%
    08:00 +29°C° 0 mm 3 mps 764 mmHg 66%
    09:00 +31°C° 0 mm 3 mps 764 mmHg 61%
    10:00 +33°C° 0 mm 3 mps 764 mmHg 56%
    11:00 +34°C° 0 mm 3 mps 764 mmHg 54%
    12:00 +34°C° 0 mm 3 mps 764 mmHg 53%
    13:00 +35°C° 0 mm 2 mps 763 mmHg 51%
    14:00 +35°C° 0 mm 3 mps 763 mmHg 53%
    15:00 +35°C° 0 mm 3 mps 763 mmHg 54%
    16:00 +35°C° 0 mm 3 mps 762 mmHg 55%
    17:00 +34°C° 0 mm 3 mps 762 mmHg 60%
    18:00 +31°C° 0 mm 3 mps 763 mmHg 64%
    19:00 +30°C° 0 mm 3 mps 763 mmHg 68%
    20:00 +29°C° 0 mm 3 mps 763 mmHg 70%
    21:00 +28°C° 0 mm 3 mps 763 mmHg 71%
    22:00 +27°C° 0 mm 3 mps 763 mmHg 73%
    23:00 +26°C° 0 mm 3 mps 763 mmHg 74%

    Mañana, 27 Junio, Jueves

    Tiempo Temperatura Precipitaciones Viento Presión Humedad
    00:00 +25°C° 0 mm 3 mps 763 mmHg 75%
    01:00 +25°C° 0 mm 3 mps 763 mmHg 76%
    02:00 +24°C° 0 mm 3 mps 763 mmHg 77%
    03:00 +24°C° 0 mm 3 mps 763 mmHg 79%
    04:00 +24°C° 0 mm 3 mps 762 mmHg 81%
    05:00 +25°C° 0 mm 3 mps 762 mmHg 78%
    06:00 +26°C° 0 mm 2 mps 762 mmHg 76%
    07:00 +28°C° 0 mm 2 mps 762 mmHg 73%
    08:00 +29°C° 0 mm 2 mps 762 mmHg 66%
    09:00 +31°C° 0 mm 1 mps 761 mmHg 59%
    10:00 +32°C° 0 mm 1 mps 761 mmHg 52%
    11:00 +33°C° 0 mm 1 mps 761 mmHg 52%
    12:00 +34°C° 0 mm 2 mps 761 mmHg 51%
    13:00 +35°C° 0 mm 2 mps 760 mmHg 51%
    14:00 +34°C° 0 mm 3 mps 760 mmHg 54%
    15:00 +34°C° 0 mm 3 mps 760 mmHg 57%
    16:00 +34°C° 0 mm 3 mps 759 mmHg 60%
    17:00 +31°C° 0 mm 3 mps 759 mmHg 64%
    18:00 +30°C° 0 mm 3 mps 759 mmHg 69%
    19:00 +29°C° 0 mm 2 mps 759 mmHg 74%
    20:00 +28°C° 0 mm 2 mps 759 mmHg 70%
    21:00 +28°C° 0 mm 3 mps 759 mmHg 67%
    22:00 +27°C° 0 mm 3 mps 760 mmHg 63%
    23:00 +27°C° 0 mm 3 mps 759 mmHg 63%

    Pasado mañana, 28 Junio, Viernes

    Tiempo Temperatura Precipitaciones Viento Presión Humedad
    00:00 +26°C° 0 mm 3 mps 759 mmHg 63%
    01:00 +26°C° 0 mm 3 mps 759 mmHg 63%
    02:00 +26°C° 0 mm 3 mps 759 mmHg 64%
    03:00 +26°C° 0 mm 4 mps 759 mmHg 66%
    04:00 +26°C° 0 mm 4 mps 759 mmHg 67%
    05:00 +27°C° 0 mm 4 mps 759 mmHg 66%
    06:00 +28°C° 0 mm 4 mps 759 mmHg 65%
    07:00 +28°C° 0 mm 4 mps 758 mmHg 64%
    08:00 +29°C° 0 mm 4 mps 758 mmHg 58%
    09:00 +30°C° 0 mm 5 mps 758 mmHg 51%
    10:00 +32°C° 0 mm 5 mps 758 mmHg 45%
    11:00 +32°C° 0 mm 5 mps 758 mmHg 44%
    12:00 +33°C° 0 mm 5 mps 758 mmHg 44%
    13:00 +33°C° 0 mm 4 mps 758 mmHg 44%
    14:00 +33°C° 0 mm 5 mps 758 mmHg 45%
    15:00 +33°C° 0 mm 5 mps 758 mmHg 47%
    16:00 +32°C° 0 mm 5 mps 758 mmHg 48%
    17:00 +29°C° 0 mm 5 mps 758 mmHg 52%
    18:00 +27°C° 0 mm 6 mps 758 mmHg 57%
    19:00 +24°C° 0 mm 6 mps 758 mmHg 61%
    20:00 +23°C° 0 mm 6 mps 759 mmHg 61%
    21:00 +22°C° 0 mm 6 mps 759 mmHg 61%
    22:00 +21°C° 0 mm 6 mps 759 mmHg 61%
    23:00 +20°C° 0 mm 6 mps 759 mmHg 66%

    29 Junio, Sábado

    Tiempo Temperatura Precipitaciones Viento Presión Humedad
    00:00 +19°C° 0 mm 6 mps 759 mmHg 71%
    01:00 +19°C° 0 mm 5 mps 759 mmHg 76%
    02:00 +17°C° 0 mm 5 mps 759 mmHg 77%
    03:00 +17°C° 0 mm 6 mps 759 mmHg 77%
    04:00 +17°C° 0 mm 6 mps 759 mmHg 78%
    05:00 +19°C° 0 mm 5 mps 759 mmHg 75%
    06:00 +21°C° 0 mm 5 mps 759 mmHg 71%
    07:00 +22°C° 0 mm 4 mps 759 mmHg 68%
    08:00 +25°C° 0 mm 4 mps 759 mmHg 63%
    09:00 +27°C° 0 mm 3 mps 760 mmHg 57%
    10:00 +28°C° 0 mm 3 mps 760 mmHg 51%
    11:00 +29°C° 0 mm 3 mps 760 mmHg 50%
    12:00 +30°C° 0 mm 3 mps 760 mmHg 49%
    13:00 +30°C° 0 mm 3 mps 760 mmHg 47%
    14:00 +30°C° 0 mm 3 mps 760 mmHg 49%
    15:00 +30°C° 0 mm 3 mps 759 mmHg 50%
    16:00 +30°C° 0 mm 3 mps 759 mmHg 52%
    17:00 +29°C° 0 mm 3 mps 760 mmHg 57%
    18:00 +28°C° 0 mm 4 mps 760 mmHg 61%
    19:00 +26°C° 0 mm 4 mps 760 mmHg 66%
    20:00 +25°C° 0 mm 4 mps 760 mmHg 66%
    21:00 +23°C° 0 mm 4 mps 761 mmHg 65%
    22:00 +22°C° 0 mm 4 mps 761 mmHg 65%
    23:00 +21°C° 0 mm 4 mps 761 mmHg 67%

    30 Junio, Domingo

    Tiempo Temperatura Precipitaciones Viento Presión Humedad
    00:00 +20°C° 0 mm 4 mps 761 mmHg 70%
    01:00 +20°C° 0 mm 4 mps 761 mmHg 72%
    02:00 +19°C° 0 mm 4 mps 761 mmHg 73%
    03:00 +19°C° 0 mm 4 mps 761 mmHg 73%
    04:00 +19°C° 0 mm 4 mps 761 mmHg 74%
    05:00 +20°C° 0 mm 4 mps 761 mmHg 72%
    06:00 +21°C° 0 mm 4 mps 761 mmHg 69%
    07:00 +24°C° 0 mm 3 mps 762 mmHg 67%
    08:00 +26°C° 0 mm 3 mps 762 mmHg 60%
    09:00 +27°C° 0 mm 2 mps 762 mmHg 54%
    10:00 +29°C° 0 mm 1 mps 762 mmHg 47%
    11:00 +30°C° 0 mm 1 mps 762 mmHg 48%
    12:00 +30°C° 0 mm 2 mps 762 mmHg 49%
    13:00 +31°C° 0 mm 2 mps 762 mmHg 49%
    14:00 +30°C° 0 mm 2 mps 761 mmHg 51%
    15:00 +30°C° 0 mm 2 mps 761 mmHg 54%
    16:00 +30°C° 0 mm 2 mps 761 mmHg 56%
    17:00 +28°C° 0 mm 2 mps 761 mmHg 63%
    18:00 +27°C° 0 mm 2 mps 761 mmHg 70%
    19:00 +25°C° 0 mm 2 mps 761 mmHg 77%
    20:00 +25°C° 0 mm 2 mps 762 mmHg 77%
    21:00 +24°C° 0 mm 1 mps 762 mmHg 78%
    22:00 +23°C° 0 mm 1 mps 762 mmHg 78%
    23:00 +23°C° 0 mm 1 mps 762 mmHg 76%

    1 Julio, Lunes

    Tiempo Temperatura Precipitaciones Viento Presión Humedad
    00:00 +23°C° 0 mm 1 mps 762 mmHg 74%
    01:00 +23°C° 0 mm 2 mps 762 mmHg 72%
    02:00 +21°C° 0 mm 2 mps 762 mmHg 71%
    03:00 +21°C° 0 mm 2 mps 762 mmHg 70%
    04:00 +21°C° 0 mm 2 mps 762 mmHg 68%
    05:00 +24°C° 0 mm 2 mps 762 mmHg 67%
    06:00 +25°C° 0 mm 1 mps 762 mmHg 65%
    07:00 +27°C° 0 mm 1 mps 762 mmHg 63%
    08:00 +28°C° 0 mm 1 mps 762 mmHg 61%
    09:00 +29°C° 0 mm 2 mps 762 mmHg 59%
    10:00 +30°C° 0 mm 2 mps 762 mmHg 56%
    11:00 +30°C° 0 mm 2 mps 761 mmHg 58%
    12:00 +30°C° 0 mm 2 mps 761 mmHg 59%
    13:00 +30°C° 0 mm 2 mps 761 mmHg 61%
    14:00 +30°C° 0 mm 2 mps 761 mmHg 62%
    15:00 +30°C° 0 mm 1 mps 761 mmHg 63%
    16:00 +30°C° 0 mm 1 mps 760 mmHg 64%
    17:00 +29°C° 0 mm 1 mps 760 mmHg 69%
    18:00 +25°C° 0 mm 0 mps 760 mmHg 73%
    19:00 +24°C° 0 mm 0 mps 760 mmHg 78%
    20:00 +24°C° 0 mm 0 mps 760 mmHg 80%
    21:00 +25°C° 0 mm 1 mps 761 mmHg 83%
    22:00 +25°C° 0 mm 1 mps 761 mmHg 85%
    23:00 +25°C° 0 mm 1 mps 761 mmHg 85%
    Mostrar más